Time,TemperatureF,DewpointF,PressureIn,WindDirection,WindDirectionDegrees,WindSpeedMPH,WindSpeedGustMPH,Humidity,HourlyPrecipIn,Conditions,Clouds,dailyrainin,SoftwareType,DateUTC
2013-12-01 00:03:00,33.4,29.4,30.31,SSW,200,0.0,0.0,85,0.00,,,0.00,VWS V14.01,2013-12-01 05:03:00,
2013-12-01 00:08:00,33.2,29.2,30.31,SSW,200,0.0,0.0,85,0.00,,,0.00,VWS V14.01,2013-12-01 05:08:00,
2013-12-01 00:13:00,33.1,29.1,30.31,SSW,200,0.0,0.0,85,0.00,,,0.00,VWS V14.01,2013-12-01 05:13:00,
2013-12-01 00:18:00,33.1,29.4,30.31,SSW,200,0.0,0.0,86,0.00,,,0.00,VWS V14.01,2013-12-01 05:18:00,
2013-12-01 00:23:00,32.9,29.2,30.31,SSW,200,0.0,0.0,86,0.00,,,0.00,VWS V14.01,2013-12-01 05:23:00,
2013-12-01 00:28:00,32.8,29.1,30.30,SSW,200,0.0,0.0,86,0.00,,,0.00,VWS V14.01,2013-12-01 05:28:00,
2013-12-01 00:30:00,30.7,27.9,30.27,SSW,200,0.0,0.0,89,0.00,,,0.00,VWS V14.01,2013-12-01 05:30:00,
2013-12-01 00:32:00,32.7,29.0,30.30,SSW,200,0.0,0.0,86,0.00,,,0.00,VWS V14.01,2013-12-01 05:32:00,
2013-12-01 00:37:00,32.5,28.8,30.30,SSW,200,0.0,0.0,86,0.00,,,0.00,VWS V14.01,2013-12-01 05:37:00,
2013-12-01 00:42:00,32.5,28.8,30.29,SSW,200,0.0,0.0,86,0.00,,,0.00,VWS V14.01,2013-12-01 05:42:00,
2013-12-01 00:47:00,32.4,28.7,30.29,SSW,200,0.0,0.0,86,0.00,,,0.00,VWS V14.01,2013-12-01 05:47:00,
2013-12-01 00:52:00,32.4,28.7,30.29,SSW,200,0.0,0.0,86,0.00,,,0.00,VWS V14.01,2013-12-01 05:52:00,
2013-12-01 00:57:00,32.2,28.8,30.28,SSW,200,0.0,0.0,87,0.00,,,0.00,VWS V14.01,2013-12-01 05:57:00,
2013-12-01 01:00:00,30.0,27.2,30.26,SSW,200,0.0,0.0,89,0.00,,,0.00,VWS V14.01,2013-12-01 06:00:00,
2013-12-01 01:02:00,32.2,28.8,30.28,SSW,200,0.0,0.0,87,0.00,,,0.00,VWS V14.01,2013-12-01 06:02:00,
2013-12-01 01:07:00,32.2,28.8,30.28,SSW,200,0.0,0.0,87,0.00,,,0.00,VWS V14.01,2013-12-01 06:07:00,
2013-12-01 01:12:00,32.2,28.8,30.28,SSW,200,0.0,0.0,87,0.00,,,0.00,VWS V14.01,2013-12-01 06:12:00,
2013-12-01 01:17:00,32.1,29.0,30.28,SSW,200,0.0,0.0,88,0.00,,,0.00,VWS V14.01,2013-12-01 06:17:00,
2013-12-01 01:22:00,31.9,28.8,30.28,SSW,200,0.0,0.0,88,0.00,,,0.00,VWS V14.01,2013-12-01 06:22:00,
2013-12-01 01:27:00,31.9,28.8,30.28,SSW,200,0.0,0.0,88,0.00,,,0.00,VWS V14.01,2013-12-01 06:27:00,
2013-12-01 01:32:00,31.8,28.7,30.28,SSW,200,0.0,0.0,88,0.00,,,0.00,VWS V14.01,2013-12-01 06:32:00,
2013-12-01 01:37:00,31.6,28.5,30.28,SSW,200,0.0,0.0,88,0.00,,,0.00,VWS V14.01,2013-12-01 06:37:00,
2013-12-01 01:42:00,31.5,28.4,30.28,SSW,200,0.0,0.0,88,0.00,,,0.00,VWS V14.01,2013-12-01 06:42:00,
2013-12-01 01:47:00,31.3,28.2,30.28,SSW,200,0.0,0.0,88,0.00,,,0.00,VWS V14.01,2013-12-01 06:47:00,
2013-12-01 01:52:00,31.3,28.2,30.28,SSW,200,0.0,0.0,88,0.00,,,0.00,VWS V14.01,2013-12-01 06:52:00,
2013-12-01 01:57:00,31.2,28.3,30.28,SSW,200,0.0,0.0,89,0.00,,,0.00,VWS V14.01,2013-12-01 06:57:00,
2013-12-01 02:00:00,31.0,28.7,30.23,SSW,200,0.0,0.0,91,0.00,,,0.00,VWS V14.01,2013-12-01 07:00:00,
2013-12-01 02:02:00,31.2,28.3,30.28,SSW,200,0.0,0.0,89,0.00,,,0.00,VWS V14.01,2013-12-01 07:02:00,
2013-12-01 02:07:00,31.0,28.1,30.28,SSW,200,0.0,0.0,89,0.00,,,0.00,VWS V14.01,2013-12-01 07:07:00,
2013-12-01 02:12:00,31.0,28.1,30.27,SSW,200,0.0,0.0,89,0.00,,,0.00,VWS V14.01,2013-12-01 07:12:00,
2013-12-01 02:17:00,30.9,28.0,30.27,SSW,200,0.0,0.0,89,0.00,,,0.00,VWS V14.01,2013-12-01 07:17:00,
2013-12-01 02:22:00,30.7,27.9,30.27,SSW,200,0.0,0.0,89,0.00,,,0.00,VWS V14.01,2013-12-01 07:22:00,
2013-12-01 02:27:00,30.6,27.8,30.27,SSW,200,0.0,0.0,89,0.00,,,0.00,VWS V14.01,2013-12-01 07:27:00,
2013-12-01 02:30:00,30.7,28.4,30.23,SSW,200,0.0,0.0,91,0.00,,,0.00,VWS V14.01,2013-12-01 07:30:00,
2013-12-01 02:32:00,30.6,27.8,30.27,SSW,200,0.0,0.0,89,0.00,,,0.00,VWS V14.01,2013-12-01 07:32:00,
2013-12-01 02:37:00,30.4,27.5,30.27,SSW,200,0.0,0.0,89,0.00,,,0.00,VWS V14.01,2013-12-01 07:37:00,
2013-12-01 02:42:00,30.3,27.5,30.27,SSW,200,0.0,0.0,89,0.00,,,0.00,VWS V14.01,2013-12-01 07:42:00,
2013-12-01 02:47:00,30.1,27.3,30.27,SSW,200,0.0,0.0,89,0.00,,,0.00,VWS V14.01,2013-12-01 07:47:00,
2013-12-01 02:52:00,30.0,27.2,30.27,SSW,200,0.0,0.0,89,0.00,,,0.00,VWS V14.01,2013-12-01 07:52:00,
2013-12-01 02:57:00,30.0,27.4,30.26,SSW,200,0.0,0.0,90,0.00,,,0.00,VWS V14.01,2013-12-01 07:57:00,
2013-12-01 03:00:00,30.1,27.8,30.23,SSW,200,0.0,0.0,91,0.00,,,0.00,VWS V14.01,2013-12-01 08:00:00,
2013-12-01 03:02:00,30.1,27.5,30.26,SSW,200,0.0,0.0,90,0.00,,,0.00,VWS V14.01,2013-12-01 08:02:00,
2013-12-01 03:07:00,30.1,27.5,30.26,SSW,200,0.0,0.0,90,0.00,,,0.00,VWS V14.01,2013-12-01 08:07:00,
2013-12-01 03:08:00,31.0,28.7,30.23,SSW,200,0.0,0.0,91,0.00,,,0.00,VWS V14.01,2013-12-01 08:08:00,
2013-12-01 03:09:00,31.0,28.7,30.23,SSW,200,0.0,0.0,91,0.00,,,0.00,VWS V14.01,2013-12-01 08:09:00,
2013-12-01 03:10:00,30.9,28.6,30.23,SSW,200,0.0,0.0,91,0.00,,,0.00,VWS V14.01,2013-12-01 08:10:00,
2013-12-01 03:12:00,30.1,27.5,30.25,SSW,200,0.0,0.0,90,0.00,,,0.00,VWS V14.01,2013-12-01 08:12:00,
2013-12-01 03:17:00,30.1,27.5,30.25,SSW,200,0.0,0.0,90,0.00,,,0.00,VWS V14.01,2013-12-01 08:17:00,
2013-12-01 03:22:00,30.3,28.0,30.25,SSW,200,0.0,0.0,91,0.00,,,0.00,VWS V14.01,2013-12-01 08:22:00,
2013-12-01 03:27:00,30.3,28.0,30.25,SSW,200,0.0,0.0,91,0.00,,,0.00,VWS V14.01,2013-12-01 08:27:00,
2013-12-01 03:30:00,29.7,27.4,30.22,SSW,200,0.0,0.0,91,0.00,,,0.00,VWS V14.01,2013-12-01 08:30:00,
2013-12-01 03:32:00,30.4,28.1,30.25,SSW,200,0.0,0.0,91,0.00,,,0.00,VWS V14.01,2013-12-01 08:32:00,
2013-12-01 03:37:00,30.6,28.3,30.25,SSW,200,0.0,0.0,91,0.00,,,0.00,VWS V14.01,2013-12-01 08:37:00,
2013-12-01 03:42:00,30.7,28.4,30.24,SSW,200,0.0,0.0,91,0.00,,,0.00,VWS V14.01,2013-12-01 08:42:00,
2013-12-01 03:47:00,30.9,28.9,30.24,SSW,200,0.0,0.0,92,0.00,,,0.00,VWS V14.01,2013-12-01 08:47:00,
2013-12-01 03:52:00,31.0,28.7,30.24,SSW,200,0.0,0.0,91,0.00,,,0.00,VWS V14.01,2013-12-01 08:52:00,
2013-12-01 03:57:00,31.0,28.7,30.23,SSW,200,0.0,0.0,91,0.00,,,0.00,VWS V14.01,2013-12-01 08:57:00,
2013-12-01 04:00:00,29.1,26.8,30.23,SSW,200,0.0,0.0,91,0.00,,,0.00,VWS V14.01,2013-12-01 09:00:00,
2013-12-01 04:02:00,31.0,28.7,30.23,SSW,200,0.0,0.0,91,0.00,,,0.00,VWS V14.01,2013-12-01 09:02:00,
2013-12-01 04:07:00,30.9,28.6,30.23,SSW,200,0.0,0.0,91,0.00,,,0.00,VWS V14.01,2013-12-01 09:07:00,
2013-12-01 04:12:00,30.9,28.6,30.24,SSW,200,0.0,0.0,91,0.00,,,0.00,VWS V14.01,2013-12-01 09:12:00,
2013-12-01 04:17:00,30.7,28.4,30.24,SSW,200,0.0,0.0,91,0.00,,,0.00,VWS V14.01,2013-12-01 09:17:00,
2013-12-01 04:22:00,30.7,28.4,30.24,SSW,200,0.0,0.0,91,0.00,,,0.00,VWS V14.01,2013-12-01 09:22:00,
2013-12-01 04:27:00,30.6,28.3,30.23,SSW,200,0.0,0.0,91,0.00,,,0.00,VWS V14.01,2013-12-01 09:27:00,
2013-12-01 04:32:00,30.6,28.3,30.23,SSW,200,0.0,0.0,91,0.00,,,0.00,VWS V14.01,2013-12-01 09:32:00,
2013-12-01 04:37:00,30.4,28.1,30.23,SSW,200,0.0,0.0,91,0.00,,,0.00,VWS V14.01,2013-12-01 09:37:00,
2013-12-01 04:42:00,30.3,28.0,30.23,SSW,200,0.0,0.0,91,0.00,,,0.00,VWS V14.01,2013-12-01 09:42:00,
2013-12-01 04:47:00,30.3,28.0,30.23,SSW,200,0.0,0.0,91,0.00,,,0.00,VWS V14.01,2013-12-01 09:47:00,
2013-12-01 04:52:00,30.1,27.8,30.23,SSW,200,0.0,0.0,91,0.00,,,0.00,VWS V14.01,2013-12-01 09:52:00,
2013-12-01 04:57:00,30.1,27.8,30.23,SSW,200,0.0,0.0,91,0.00,,,0.00,VWS V14.01,2013-12-01 09:57:00,
2013-12-01 05:00:00,28.7,26.7,30.22,SSW,200,0.0,0.0,92,0.00,,,0.00,VWS V14.01,2013-12-01 10:00:00,
2013-12-01 05:02:00,30.0,27.7,30.23,SSW,200,0.0,0.0,91,0.00,,,0.00,VWS V14.01,2013-12-01 10:02:00,
2013-12-01 05:07:00,30.0,27.7,30.23,SSW,200,0.0,0.0,91,0.00,,,0.00,VWS V14.01,2013-12-01 10:07:00,
2013-12-01 05:12:00,29.8,27.5,30.23,SSW,200,0.0,0.0,91,0.00,,,0.00,VWS V14.01,2013-12-01 10:12:00,
2013-12-01 05:17:00,29.8,27.5,30.23,SSW,200,0.0,0.0,91,0.00,,,0.00,VWS V14.01,2013-12-01 10:17:00,
2013-12-01 05:22:00,29.7,27.4,30.23,SSW,200,0.0,0.0,91,0.00,,,0.00,VWS V14.01,2013-12-01 10:22:00,
2013-12-01 05:27:00,29.5,27.2,30.22,SSW,200,0.0,0.0,91,0.00,,,0.00,VWS V14.01,2013-12-01 10:27:00,
2013-12-01 05:30:00,28.4,26.4,30.23,SSW,200,0.0,0.0,92,0.00,,,0.00,VWS V14.01,2013-12-01 10:30:00,
2013-12-01 05:32:00,29.4,27.1,30.22,SSW,200,0.0,0.0,91,0.00,,,0.00,VWS V14.01,2013-12-01 10:32:00,
2013-12-01 05:37:00,29.4,27.1,30.22,SSW,200,0.0,0.0,91,0.00,,,0.00,VWS V14.01,2013-12-01 10:37:00,
2013-12-01 05:42:00,29.3,27.0,30.23,SSW,200,0.0,0.0,91,0.00,,,0.00,VWS V14.01,2013-12-01 10:42:00,
2013-12-01 05:47:00,29.3,27.0,30.23,SSW,200,0.0,0.0,91,0.00,,,0.00,VWS V14.01,2013-12-01 10:47:00,
2013-12-01 05:52:00,29.1,26.8,30.23,SSW,200,0.0,0.0,91,0.00,,,0.00,VWS V14.01,2013-12-01 10:52:00,
2013-12-01 05:57:00,29.0,26.7,30.23,SSW,200,0.0,0.0,91,0.00,,,0.00,VWS V14.01,2013-12-01 10:57:00,
2013-12-01 06:00:00,29.7,27.9,30.22,SSW,200,0.0,0.0,93,0.00,,,0.00,VWS V14.01,2013-12-01 11:00:00,
2013-12-01 06:02:00,29.0,26.7,30.23,SSW,200,0.0,0.0,91,0.00,,,0.00,VWS V14.01,2013-12-01 11:02:00,
2013-12-01 06:07:00,28.8,26.5,30.23,SSW,200,0.0,0.0,91,0.00,,,0.00,VWS V14.01,2013-12-01 11:07:00,
2013-12-01 06:12:00,28.8,26.5,30.23,SSW,200,0.0,0.0,91,0.00,,,0.00,VWS V14.01,2013-12-01 11:12:00,
2013-12-01 06:17:00,28.8,26.5,30.23,SSW,200,0.0,0.0,91,0.00,,,0.00,VWS V14.01,2013-12-01 11:17:00,
2013-12-01 06:22:00,28.8,26.5,30.23,SSW,200,0.0,0.0,91,0.00,,,0.00,VWS V14.01,2013-12-01 11:22:00,
2013-12-01 06:27:00,28.8,26.8,30.23,SSW,200,0.0,0.0,92,0.00,,,0.00,VWS V14.01,2013-12-01 11:27:00,
2013-12-01 06:30:00,32.9,30.3,30.22,SSW,200,0.0,0.0,90,0.00,,,0.00,VWS V14.01,2013-12-01 11:30:00,
2013-12-01 06:32:00,29.0,27.0,30.23,SSW,200,0.0,0.0,92,0.00,,,0.00,VWS V14.01,2013-12-01 11:32:00,
2013-12-01 06:37:00,29.0,27.0,30.23,SSW,200,0.0,0.0,92,0.00,,,0.00,VWS V14.01,2013-12-01 11:37:00,
2013-12-01 06:42:00,28.8,26.8,30.23,SSW,200,0.0,0.0,92,0.00,,,0.00,VWS V14.01,2013-12-01 11:42:00,
2013-12-01 06:47:00,28.8,26.8,30.23,SSW,200,0.0,0.0,92,0.00,,,0.00,VWS V14.01,2013-12-01 11:47:00,
2013-12-01 06:52:00,28.7,26.7,30.23,SSW,200,0.0,0.0,92,0.00,,,0.00,VWS V14.01,2013-12-01 11:52:00,
2013-12-01 06:57:00,28.7,26.7,30.22,SSW,200,0.0,0.0,92,0.00,,,0.00,VWS V14.01,2013-12-01 11:57:00,
2013-12-01 07:00:00,37.8,32.2,30.22,SSW,200,0.0,0.0,80,0.00,,,0.00,VWS V14.01,2013-12-01 12:00:00,
2013-12-01 07:02:00,28.5,26.5,30.22,SSW,200,0.0,0.0,92,0.00,,,0.00,VWS V14.01,2013-12-01 12:02:00,
2013-12-01 07:07:00,28.4,26.4,30.22,SSW,200,0.0,0.0,92,0.00,,,0.00,VWS V14.01,2013-12-01 12:07:00,
2013-12-01 07:12:00,28.4,26.4,30.23,SSW,200,0.0,0.0,92,0.00,,,0.00,VWS V14.01,2013-12-01 12:12:00,
2013-12-01 07:17:00,28.4,26.4,30.23,SSW,200,0.0,0.0,92,0.00,,,0.00,VWS V14.01,2013-12-01 12:17:00,
2013-12-01 07:22:00,28.4,26.4,30.23,SSW,200,0.0,0.0,92,0.00,,,0.00,VWS V14.01,2013-12-01 12:22:00,
2013-12-01 07:27:00,28.2,26.2,30.23,SSW,200,0.0,0.0,92,0.00,,,0.00,VWS V14.01,2013-12-01 12:27:00,
2013-12-01 07:30:00,41.3,34.3,30.21,SSW,200,0.0,0.0,76,0.00,,,0.00,VWS V14.01,2013-12-01 12:30:00,
2013-12-01 07:32:00,28.2,26.2,30.23,SSW,200,0.0,0.0,92,0.00,,,0.00,VWS V14.01,2013-12-01 12:32:00,
2013-12-01 07:37:00,28.2,26.2,30.23,SSW,200,0.0,0.0,92,0.00,,,0.00,VWS V14.01,2013-12-01 12:37:00,
2013-12-01 07:42:00,28.2,26.2,30.22,SSW,200,0.0,0.0,92,0.00,,,0.00,VWS V14.01,2013-12-01 12:42:00,
2013-12-01 07:47:00,29.0,27.0,30.22,SSW,200,0.0,0.0,92,0.00,,,0.00,VWS V14.01,2013-12-01 12:47:00,
2013-12-01 07:52:00,29.4,27.6,30.22,SSW,200,0.0,0.0,93,0.00,,,0.00,VWS V14.01,2013-12-01 12:52:00,
2013-12-01 07:57:00,30.1,28.3,30.22,SSW,200,0.0,0.0,93,0.00,,,0.00,VWS V14.01,2013-12-01 12:57:00,
2013-12-01 08:00:00,44.2,34.7,30.20,SSW,200,0.0,5.0,69,0.00,,,0.00,VWS V14.01,2013-12-01 13:00:00,
2013-12-01 08:02:00,30.6,28.8,30.22,SSW,200,0.0,0.0,93,0.00,,,0.00,VWS V14.01,2013-12-01 13:02:00,
2013-12-01 08:07:00,31.2,29.4,30.22,SSW,200,0.0,0.0,93,0.00,,,0.00,VWS V14.01,2013-12-01 13:07:00,
2013-12-01 08:12:00,31.5,29.5,30.22,SSW,200,0.0,0.0,92,0.00,,,0.00,VWS V14.01,2013-12-01 13:12:00,
2013-12-01 08:17:00,31.9,29.8,30.22,SSW,200,0.0,0.0,92,0.00,,,0.00,VWS V14.01,2013-12-01 13:17:00,
2013-12-01 08:22:00,32.5,30.2,30.22,SSW,200,0.0,0.0,91,0.00,,,0.00,VWS V14.01,2013-12-01 13:22:00,
2013-12-01 08:27:00,33.4,30.8,30.22,SSW,200,0.0,0.0,90,0.00,,,0.00,VWS V14.01,2013-12-01 13:27:00,
2013-12-01 08:30:00,47.1,33.1,30.20,SSW,200,3.0,5.0,58,0.00,,,0.00,VWS V14.01,2013-12-01 13:30:00,
2013-12-01 08:32:00,34.3,31.1,30.22,SSW,200,0.0,0.0,88,0.00,,,0.00,VWS V14.01,2013-12-01 13:32:00,
2013-12-01 08:37:00,35.0,31.2,30.22,SSW,200,0.0,0.0,86,0.00,,,0.00,VWS V14.01,2013-12-01 13:37:00,
2013-12-01 08:42:00,35.9,31.5,30.22,SSW,200,0.0,0.0,84,0.00,,,0.00,VWS V14.01,2013-12-01 13:42:00,
2013-12-01 08:47:00,36.6,31.6,30.22,SSW,200,0.0,0.0,82,0.00,,,0.00,VWS V14.01,2013-12-01 13:47:00,
2013-12-01 08:52:00,37.2,31.9,30.22,SSW,200,0.0,0.0,81,0.00,,,0.00,VWS V14.01,2013-12-01 13:52:00,
2013-12-01 08:57:00,37.9,31.7,30.22,SSW,200,0.0,0.0,78,0.00,,,0.00,VWS V14.01,2013-12-01 13:57:00,
2013-12-01 09:00:00,50.2,34.2,30.18,SSW,202,0.0,4.0,54,0.00,,,0.00,VWS V14.01,2013-12-01 14:00:00,
2013-12-01 09:02:00,38.5,32.2,30.22,SSW,200,0.0,0.0,78,0.00,,,0.00,VWS V14.01,2013-12-01 14:02:00,
2013-12-01 09:07:00,39.2,32.6,30.22,SSW,200,0.0,0.0,77,0.00,,,0.00,VWS V14.01,2013-12-01 14:07:00,
2013-12-01 09:12:00,39.8,32.9,30.22,SSW,200,0.0,0.0,76,0.00,,,0.00,VWS V14.01,2013-12-01 14:12:00,
2013-12-01 09:17:00,40.5,33.2,30.22,SSW,200,0.0,0.0,75,0.00,,,0.00,VWS V14.01,2013-12-01 14:17:00,
2013-12-01 09:22:00,41.1,33.8,30.22,SSW,200,0.0,0.0,75,0.00,,,0.00,VWS V14.01,2013-12-01 14:22:00,
2013-12-01 09:27:00,41.8,34.8,30.21,SSW,200,0.0,0.0,76,0.00,,,0.00,VWS V14.01,2013-12-01 14:27:00,
2013-12-01 09:30:00,53.1,33.9,30.17,NNE,19,0.0,6.0,48,0.00,,,0.00,VWS V14.01,2013-12-01 14:30:00,
2013-12-01 09:32:00,42.5,34.8,30.21,SSW,200,0.0,0.0,74,0.00,,,0.00,VWS V14.01,2013-12-01 14:32:00,
2013-12-01 09:37:00,42.8,35.1,30.21,SSW,200,0.0,0.0,74,0.00,,,0.00,VWS V14.01,2013-12-01 14:37:00,
2013-12-01 09:42:00,42.9,34.5,30.21,SSW,200,0.0,5.0,72,0.00,,,0.00,VWS V14.01,2013-12-01 14:42:00,
2013-12-01 09:47:00,43.3,34.5,30.21,SSW,200,0.0,5.0,71,0.00,,,0.00,VWS V14.01,2013-12-01 14:47:00,
2013-12-01 09:52:00,43.8,34.7,30.21,SSW,200,0.0,5.0,70,0.00,,,0.00,VWS V14.01,2013-12-01 14:52:00,
2013-12-01 09:57:00,44.5,34.6,30.20,SSW,200,0.0,0.0,68,0.00,,,0.00,VWS V14.01,2013-12-01 14:57:00,
2013-12-01 10:00:00,53.8,33.5,30.14,NE,42,0.0,3.0,46,0.00,,,0.00,VWS V14.01,2013-12-01 15:00:00,
2013-12-01 10:02:00,44.8,34.5,30.20,SSW,200,0.0,0.0,67,0.00,,,0.00,VWS V14.01,2013-12-01 15:02:00,
2013-12-01 10:07:00,45.4,33.6,30.20,SSW,200,0.0,0.0,63,0.00,,,0.00,VWS V14.01,2013-12-01 15:07:00,
2013-12-01 10:12:00,46.0,32.9,30.20,SSW,200,0.0,1.0,60,0.00,,,0.00,VWS V14.01,2013-12-01 15:12:00,
2013-12-01 10:17:00,46.5,33.4,30.20,SSW,200,2.0,5.0,60,0.00,,,0.00,VWS V14.01,2013-12-01 15:17:00,
2013-12-01 10:22:00,46.8,33.2,30.20,SSW,200,0.0,5.0,59,0.00,,,0.00,VWS V14.01,2013-12-01 15:22:00,
2013-12-01 10:27:00,47.4,33.4,30.20,SSW,200,0.0,3.0,58,0.00,,,0.00,VWS V14.01,2013-12-01 15:27:00,
2013-12-01 10:30:00,55.9,32.6,30.12,NNE,26,0.0,6.0,41,0.00,,,0.00,VWS V14.01,2013-12-01 15:30:00,
2013-12-01 10:32:00,47.9,33.8,30.20,SSW,200,0.0,3.0,58,0.00,,,0.00,VWS V14.01,2013-12-01 15:32:00,
2013-12-01 10:37:00,48.3,33.3,30.20,SSW,200,0.0,3.0,56,0.00,,,0.00,VWS V14.01,2013-12-01 15:37:00,
2013-12-01 10:42:00,48.9,34.3,30.19,SSW,200,0.0,4.0,57,0.00,,,0.00,VWS V14.01,2013-12-01 15:42:00,
2013-12-01 10:47:00,49.5,34.0,30.19,SSW,200,0.0,4.0,55,0.00,,,0.00,VWS V14.01,2013-12-01 15:47:00,
2013-12-01 10:52:00,50.1,34.1,30.19,SSW,204,0.0,4.0,54,0.00,,,0.00,VWS V14.01,2013-12-01 15:52:00,
2013-12-01 10:57:00,50.4,34.4,30.18,SSW,200,0.0,0.0,54,0.00,,,0.00,VWS V14.01,2013-12-01 15:57:00,
2013-12-01 11:00:00,57.8,33.0,30.10,NNE,12,2.0,5.0,39,0.00,,,0.00,VWS V14.01,2013-12-01 16:00:00,
2013-12-01 11:02:00,51.1,35.0,30.18,SSW,200,0.0,0.0,54,0.00,,,0.00,VWS V14.01,2013-12-01 16:02:00,
2013-12-01 11:07:00,51.7,34.7,30.18,SSW,199,1.0,2.0,52,0.00,,,0.00,VWS V14.01,2013-12-01 16:07:00,
2013-12-01 11:12:00,52.2,34.6,30.18,SSW,202,0.0,3.0,51,0.00,,,0.00,VWS V14.01,2013-12-01 16:12:00,
2013-12-01 11:17:00,52.5,33.9,30.18,NNE,17,1.0,6.0,49,0.00,,,0.00,VWS V14.01,2013-12-01 16:17:00,
2013-12-01 11:22:00,52.8,34.2,30.18,NNE,19,0.0,6.0,49,0.00,,,0.00,VWS V14.01,2013-12-01 16:22:00,
2013-12-01 11:27:00,53.2,34.0,30.17,NNE,19,0.0,1.0,48,0.00,,,0.00,VWS V14.01,2013-12-01 16:27:00,
2013-12-01 11:30:00,59.5,31.1,30.08,NNE,14,0.0,4.0,34,0.00,,,0.00,VWS V14.01,2013-12-01 16:30:00,
2013-12-01 11:32:00,53.6,33.3,30.17,NNE,20,0.0,1.0,46,0.00,,,0.00,VWS V14.01,2013-12-01 16:32:00,
2013-12-01 11:37:00,53.5,34.3,30.17,NNE,20,0.0,1.0,48,0.00,,,0.00,VWS V14.01,2013-12-01 16:37:00,
2013-12-01 11:42:00,53.5,33.8,30.15,North,10,0.0,1.0,47,0.00,,,0.00,VWS V14.01,2013-12-01 16:42:00,
2013-12-01 11:47:00,53.6,32.8,30.15,NE,49,0.0,3.0,45,0.00,,,0.00,VWS V14.01,2013-12-01 16:47:00,
2013-12-01 11:52:00,53.6,33.3,30.15,NE,42,0.0,3.0,46,0.00,,,0.00,VWS V14.01,2013-12-01 16:52:00,
2013-12-01 11:57:00,53.8,33.0,30.14,NE,42,0.0,0.0,45,0.00,,,0.00,VWS V14.01,2013-12-01 16:57:00,
2013-12-01 12:00:00,59.8,29.1,30.06,NNE,23,0.0,4.0,31,0.00,,,0.00,VWS V14.01,2013-12-01 17:00:00,
2013-12-01 12:02:00,53.8,33.0,30.14,NE,42,0.0,0.0,45,0.00,,,0.00,VWS V14.01,2013-12-01 17:02:00,
2013-12-01 12:07:00,54.2,33.3,30.14,WNW,292,0.0,0.0,45,0.00,,,0.00,VWS V14.01,2013-12-01 17:07:00,
2013-12-01 12:12:00,54.8,32.2,30.13,NW,319,0.0,0.0,42,0.00,,,0.00,VWS V14.01,2013-12-01 17:12:00,
2013-12-01 12:17:00,55.6,32.9,30.13,NW,320,0.0,6.0,42,0.00,,,0.00,VWS V14.01,2013-12-01 17:17:00,
2013-12-01 12:22:00,55.7,32.4,30.13,NNE,20,0.0,6.0,41,0.00,,,0.00,VWS V14.01,2013-12-01 17:22:00,
2013-12-01 12:27:00,55.9,32.6,30.12,NNE,26,0.0,0.0,41,0.00,,,0.00,VWS V14.01,2013-12-01 17:27:00,
2013-12-01 12:30:00,60.5,29.7,30.05,NNE,25,0.0,5.0,31,0.00,,,0.00,VWS V14.01,2013-12-01 17:30:00,
2013-12-01 12:32:00,56.2,32.2,30.12,NNE,26,0.0,4.0,40,0.00,,,0.00,VWS V14.01,2013-12-01 17:32:00,
2013-12-01 12:37:00,56.5,32.5,30.12,NNE,12,1.0,5.0,40,0.00,,,0.00,VWS V14.01,2013-12-01 17:37:00,
2013-12-01 12:42:00,56.7,32.7,30.11,NNE,12,3.0,5.0,40,0.00,,,0.00,VWS V14.01,2013-12-01 17:42:00,
2013-12-01 12:47:00,57.3,32.6,30.11,NNE,12,0.0,5.0,39,0.00,,,0.00,VWS V14.01,2013-12-01 17:47:00,
2013-12-01 12:52:00,57.6,32.8,30.11,NNE,12,1.0,5.0,39,0.00,,,0.00,VWS V14.01,2013-12-01 17:52:00,
2013-12-01 12:57:00,58.0,32.6,30.10,NNE,12,0.0,4.0,38,0.00,,,0.00,VWS V14.01,2013-12-01 17:57:00,
2013-12-01 13:00:00,61.3,27.9,30.04,NNE,25,0.0,3.0,28,0.00,,,0.00,VWS V14.01,2013-12-01 18:00:00,
2013-12-01 13:02:00,58.4,32.2,30.10,NNE,14,2.0,4.0,37,0.00,,,0.00,VWS V14.01,2013-12-01 18:02:00,
2013-12-01 13:07:00,58.9,32.0,30.10,NNE,14,0.0,4.0,36,0.00,,,0.00,VWS V14.01,2013-12-01 18:07:00,
2013-12-01 13:12:00,59.3,31.7,30.09,NNE,13,0.0,4.0,35,0.00,,,0.00,VWS V14.01,2013-12-01 18:12:00,
2013-12-01 13:17:00,59.5,31.9,30.09,NNE,14,0.0,4.0,35,0.00,,,0.00,VWS V14.01,2013-12-01 18:17:00,
2013-12-01 13:22:00,59.5,31.9,30.09,NNE,14,0.0,4.0,35,0.00,,,0.00,VWS V14.01,2013-12-01 18:22:00,
2013-12-01 13:27:00,59.3,31.7,30.08,NNE,15,0.0,3.0,35,0.00,,,0.00,VWS V14.01,2013-12-01 18:27:00,
2013-12-01 13:32:00,59.2,30.9,30.08,NNE,17,0.0,4.0,34,0.00,,,0.00,VWS V14.01,2013-12-01 18:32:00,
2013-12-01 13:37:00,59.5,30.4,30.08,NNE,17,0.0,4.0,33,0.00,,,0.00,VWS V14.01,2013-12-01 18:37:00,
2013-12-01 13:42:00,59.6,29.7,30.07,NNE,17,1.0,4.0,32,0.00,,,0.00,VWS V14.01,2013-12-01 18:42:00,
2013-12-01 13:43:00,60.7,29.1,30.05,NNE,25,0.0,3.0,30,0.00,,,0.00,VWS V14.01,2013-12-01 18:43:00,
2013-12-01 13:44:00,60.7,29.9,30.05,NNE,25,0.0,3.0,31,0.00,,,0.00,VWS V14.01,2013-12-01 18:44:00,
2013-12-01 13:45:00,60.5,29.7,30.04,NNE,25,0.0,3.0,31,0.00,,,0.00,VWS V14.01,2013-12-01 18:45:00,
2013-12-01 13:46:00,60.5,28.9,30.04,NNE,25,0.0,3.0,30,0.00,,,0.00,VWS V14.01,2013-12-01 18:46:00,
2013-12-01 13:47:00,59.5,29.6,30.07,NNE,17,2.0,4.0,32,0.00,,,0.00,VWS V14.01,2013-12-01 18:47:00,
2013-12-01 13:52:00,59.8,30.7,30.07,NNE,17,0.0,4.0,33,0.00,,,0.00,VWS V14.01,2013-12-01 18:52:00,
2013-12-01 13:57:00,59.8,29.1,30.06,NNE,23,0.0,0.0,31,0.00,,,0.00,VWS V14.01,2013-12-01 18:57:00,
2013-12-01 14:00:00,61.3,27.9,30.02,NNE,25,0.0,3.0,28,0.00,,,0.00,VWS V14.01,2013-12-01 19:00:00,
2013-12-01 14:02:00,59.8,28.3,30.06,NNE,24,0.0,3.0,30,0.00,,,0.00,VWS V14.01,2013-12-01 19:02:00,
2013-12-01 14:07:00,60.1,27.8,30.06,NNE,24,0.0,3.0,29,0.00,,,0.00,VWS V14.01,2013-12-01 19:07:00,
2013-12-01 14:11:00,60.2,27.9,30.06,NNE,24,3.0,4.0,29,0.00,,,0.00,VWS V14.01,2013-12-01 19:11:00,
2013-12-01 14:17:00,60.2,28.7,30.06,NNE,24,0.0,4.0,30,0.00,,,0.00,VWS V14.01,2013-12-01 19:17:00,
2013-12-01 14:22:00,60.2,28.7,30.06,NNE,25,0.0,5.0,30,0.00,,,0.00,VWS V14.01,2013-12-01 19:22:00,
2013-12-01 14:27:00,60.7,29.1,30.05,NNE,25,2.0,3.0,30,0.00,,,0.00,VWS V14.01,2013-12-01 19:27:00,
2013-12-01 14:30:00,59.9,29.2,30.02,NNE,25,0.0,2.0,31,0.00,,,0.00,VWS V14.01,2013-12-01 19:30:00,
2013-12-01 14:32:00,60.9,28.5,30.05,NNE,25,0.0,3.0,29,0.00,,,0.00,VWS V14.01,2013-12-01 19:32:00,
2013-12-01 14:37:00,60.7,29.1,30.05,NNE,25,0.0,3.0,30,0.00,,,0.00,VWS V14.01,2013-12-01 19:37:00,
2013-12-01 14:41:00,60.5,28.9,30.04,NNE,25,0.0,3.0,30,0.00,,,0.00,VWS V14.01,2013-12-01 19:41:00,
2013-12-01 14:46:00,60.9,28.5,30.04,NNE,25,0.0,3.0,29,0.00,,,0.00,VWS V14.01,2013-12-01 19:46:00,
2013-12-01 14:51:00,61.2,28.7,30.04,NNE,25,0.0,3.0,29,0.00,,,0.00,VWS V14.01,2013-12-01 19:51:00,
2013-12-01 14:56:00,61.5,28.1,30.04,NNE,25,0.0,0.0,28,0.00,,,0.00,VWS V14.01,2013-12-01 19:56:00,
2013-12-01 15:00:00,58.0,33.2,30.01,NNE,25,0.0,0.0,39,0.00,,,0.00,VWS V14.01,2013-12-01 20:00:00,
2013-12-01 15:02:00,61.6,28.2,30.04,NNE,25,0.0,0.0,28,0.00,,,0.00,VWS V14.01,2013-12-01 20:02:00,
2013-12-01 15:07:00,61.8,27.5,30.04,NNE,25,0.0,2.0,27,0.00,,,0.00,VWS V14.01,2013-12-01 20:07:00,
2013-12-01 15:12:00,62.0,28.5,30.04,NNE,25,0.0,2.0,28,0.00,,,0.00,VWS V14.01,2013-12-01 20:12:00,
2013-12-01 15:17:00,62.1,29.5,30.04,NNE,25,0.0,2.0,29,0.00,,,0.00,VWS V14.01,2013-12-01 20:17:00,
2013-12-01 15:22:00,62.0,28.5,30.04,NNE,25,0.0,2.0,28,0.00,,,0.00,VWS V14.01,2013-12-01 20:22:00,
2013-12-01 15:27:00,62.0,27.7,30.03,NNE,25,0.0,0.0,27,0.00,,,0.00,VWS V14.01,2013-12-01 20:27:00,
2013-12-01 15:30:00,54.7,33.2,30.01,NNE,25,0.0,0.0,44,0.00,,,0.00,VWS V14.01,2013-12-01 20:30:00,
2013-12-01 15:32:00,62.0,27.7,30.03,NNE,25,0.0,1.0,27,0.00,,,0.00,VWS V14.01,2013-12-01 20:32:00,
2013-12-01 15:37:00,62.0,28.5,30.03,NNE,25,0.0,1.0,28,0.00,,,0.00,VWS V14.01,2013-12-01 20:37:00,
2013-12-01 15:42:00,61.8,28.4,30.02,NNE,25,1.0,3.0,28,0.00,,,0.00,VWS V14.01,2013-12-01 20:42:00,
2013-12-01 15:47:00,61.5,28.1,30.02,NNE,25,0.0,3.0,28,0.00,,,0.00,VWS V14.01,2013-12-01 20:47:00,
2013-12-01 15:52:00,61.3,27.1,30.02,NNE,25,0.0,3.0,27,0.00,,,0.00,VWS V14.01,2013-12-01 20:52:00,
2013-12-01 15:57:00,61.2,27.9,30.02,NNE,25,0.0,0.0,28,0.00,,,0.00,VWS V14.01,2013-12-01 20:57:00,
2013-12-01 16:00:00,52.2,35.1,30.01,NNE,25,0.0,0.0,52,0.00,,,0.00,VWS V14.01,2013-12-01 21:00:00,
2013-12-01 16:02:00,61.0,28.5,30.02,NNE,25,0.0,2.0,29,0.00,,,0.00,VWS V14.01,2013-12-01 21:02:00,
2013-12-01 16:07:00,60.7,28.3,30.02,NNE,25,0.0,2.0,29,0.00,,,0.00,VWS V14.01,2013-12-01 21:07:00,
2013-12-01 16:12:00,60.5,28.9,30.02,NNE,25,0.0,2.0,30,0.00,,,0.00,VWS V14.01,2013-12-01 21:12:00,
2013-12-01 16:17:00,60.4,29.6,30.02,NNE,25,0.0,2.0,31,0.00,,,0.00,VWS V14.01,2013-12-01 21:17:00,
2013-12-01 16:22:00,60.1,28.6,30.02,NNE,25,0.0,2.0,30,0.00,,,0.00,VWS V14.01,2013-12-01 21:22:00,
2013-12-01 16:27:00,59.8,29.1,30.02,NNE,25,0.0,0.0,31,0.00,,,0.00,VWS V14.01,2013-12-01 21:27:00,
2013-12-01 16:30:00,51.1,34.6,30.01,NNE,25,0.0,0.0,53,0.00,,,0.00,VWS V14.01,2013-12-01 21:30:00,
2013-12-01 16:32:00,59.5,28.9,30.02,NNE,25,0.0,0.0,31,0.00,,,0.00,VWS V14.01,2013-12-01 21:32:00,
2013-12-01 16:37:00,59.2,28.6,30.02,NNE,25,0.0,0.0,31,0.00,,,0.00,VWS V14.01,2013-12-01 21:37:00,
2013-12-01 16:42:00,58.9,29.1,30.01,NNE,25,0.0,0.0,32,0.00,,,0.00,VWS V14.01,2013-12-01 21:42:00,
2013-12-01 16:47:00,58.6,32.4,30.01,NNE,25,0.0,0.0,37,0.00,,,0.00,VWS V14.01,2013-12-01 21:47:00,
2013-12-01 16:52:00,58.3,32.8,30.01,NNE,25,0.0,0.0,38,0.00,,,0.00,VWS V14.01,2013-12-01 21:52:00,
2013-12-01 16:57:00,57.8,33.7,30.01,NNE,25,0.0,0.0,40,0.00,,,0.00,VWS V14.01,2013-12-01 21:57:00,
2013-12-01 17:00:00,50.7,34.7,30.01,NNE,25,0.0,0.0,54,0.00,,,0.00,VWS V14.01,2013-12-01 22:00:00,
2013-12-01 17:02:00,57.2,33.7,30.01,NNE,25,0.0,0.0,41,0.00,,,0.00,VWS V14.01,2013-12-01 22:02:00,
2013-12-01 17:07:00,56.7,33.3,30.01,NNE,25,0.0,0.0,41,0.00,,,0.00,VWS V14.01,2013-12-01 22:07:00,
2013-12-01 17:12:00,56.3,33.5,30.01,NNE,25,0.0,0.0,42,0.00,,,0.00,VWS V14.01,2013-12-01 22:12:00,
2013-12-01 17:17:00,55.7,33.6,30.01,NNE,25,0.0,0.0,43,0.00,,,0.00,VWS V14.01,2013-12-01 22:17:00,
2013-12-01 17:22:00,55.0,33.5,30.01,NNE,25,0.0,0.0,44,0.00,,,0.00,VWS V14.01,2013-12-01 22:22:00,
2013-12-01 17:27:00,54.5,33.0,30.01,NNE,25,0.0,0.0,44,0.00,,,0.00,VWS V14.01,2013-12-01 22:27:00,
2013-12-01 17:30:00,50.4,34.4,30.01,NNE,25,0.0,0.0,54,0.00,,,0.00,VWS V14.01,2013-12-01 22:30:00,
2013-12-01 17:32:00,53.9,33.6,30.01,NNE,25,0.0,0.0,46,0.00,,,0.00,VWS V14.01,2013-12-01 22:32:00,
2013-12-01 17:37:00,53.5,34.3,30.01,NNE,25,0.0,0.0,48,0.00,,,0.00,VWS V14.01,2013-12-01 22:37:00,
2013-12-01 17:42:00,53.1,34.5,30.01,NNE,25,0.0,0.0,49,0.00,,,0.00,VWS V14.01,2013-12-01 22:42:00,
2013-12-01 17:47:00,52.6,35.5,30.01,NNE,25,0.0,0.0,52,0.00,,,0.00,VWS V14.01,2013-12-01 22:47:00,
2013-12-01 17:52:00,52.3,35.2,30.01,NNE,25,0.0,0.0,52,0.00,,,0.00,VWS V14.01,2013-12-01 22:52:00,
2013-12-01 17:57:00,52.0,34.9,30.01,NNE,25,0.0,0.0,52,0.00,,,0.00,VWS V14.01,2013-12-01 22:57:00,
2013-12-01 18:00:00,50.4,36.2,30.00,NNE,25,0.0,0.0,58,0.00,,,0.00,VWS V14.01,2013-12-01 23:00:00,
2013-12-01 18:02:00,51.9,34.8,30.01,NNE,25,0.0,0.0,52,0.00,,,0.00,VWS V14.01,2013-12-01 23:02:00,
2013-12-01 18:07:00,51.6,35.5,30.01,NNE,25,0.0,0.0,54,0.00,,,0.00,VWS V14.01,2013-12-01 23:07:00,
2013-12-01 18:12:00,51.4,35.3,30.01,NNE,25,0.0,0.0,54,0.00,,,0.00,VWS V14.01,2013-12-01 23:12:00,
2013-12-01 18:17:00,51.3,34.8,30.01,NNE,25,0.0,0.0,53,0.00,,,0.00,VWS V14.01,2013-12-01 23:17:00,
2013-12-01 18:22:00,51.3,34.8,30.01,NNE,25,0.0,0.0,53,0.00,,,0.00,VWS V14.01,2013-12-01 23:22:00,
2013-12-01 18:27:00,51.1,34.6,30.01,NNE,25,0.0,0.0,53,0.00,,,0.00,VWS V14.01,2013-12-01 23:27:00,
2013-12-01 18:30:00,49.9,36.2,29.99,NNE,25,0.0,0.0,59,0.00,,,0.00,VWS V14.01,2013-12-01 23:30:00,
2013-12-01 18:32:00,51.0,35.4,30.01,NNE,25,0.0,0.0,55,0.00,,,0.00,VWS V14.01,2013-12-01 23:32:00,
2013-12-01 18:37:00,50.8,34.8,30.01,NNE,25,0.0,0.0,54,0.00,,,0.00,VWS V14.01,2013-12-01 23:37:00,
2013-12-01 18:42:00,50.8,34.8,30.01,NNE,25,0.0,0.0,54,0.00,,,0.00,VWS V14.01,2013-12-01 23:42:00,
2013-12-01 18:47:00,50.7,34.7,30.01,NNE,25,0.0,0.0,54,0.00,,,0.00,VWS V14.01,2013-12-01 23:47:00,
2013-12-01 18:52:00,50.7,34.7,30.01,NNE,25,0.0,0.0,54,0.00,,,0.00,VWS V14.01,2013-12-01 23:52:00,
2013-12-01 18:57:00,50.7,35.1,30.01,NNE,25,0.0,0.0,55,0.00,,,0.00,VWS V14.01,2013-12-01 23:57:00,
2013-12-01 19:00:00,48.5,36.5,30.00,NNE,25,0.0,0.0,63,0.00,,,0.00,VWS V14.01,2013-12-02 00:00:00,
2013-12-01 19:02:00,50.5,34.5,30.01,NNE,25,0.0,0.0,54,0.00,,,0.00,VWS V14.01,2013-12-02 00:02:00,
2013-12-01 19:07:00,50.5,35.8,30.01,NNE,25,0.0,0.0,57,0.00,,,0.00,VWS V14.01,2013-12-02 00:07:00,
2013-12-01 19:12:00,50.4,34.9,30.01,NNE,25,0.0,0.0,55,0.00,,,0.00,VWS V14.01,2013-12-02 00:12:00,
2013-12-01 19:17:00,50.4,35.3,30.01,NNE,25,0.0,0.0,56,0.00,,,0.00,VWS V14.01,2013-12-02 00:17:00,
2013-12-01 19:22:00,50.4,35.3,30.01,NNE,25,0.0,0.0,56,0.00,,,0.00,VWS V14.01,2013-12-02 00:22:00,
2013-12-01 19:27:00,50.4,35.3,30.01,NNE,25,0.0,0.0,56,0.00,,,0.00,VWS V14.01,2013-12-02 00:27:00,
2013-12-01 19:30:00,46.7,36.7,29.99,NNE,25,0.0,0.0,68,0.00,,,0.00,VWS V14.01,2013-12-02 00:30:00,
2013-12-01 19:32:00,50.4,35.8,30.01,NNE,25,0.0,0.0,57,0.00,,,0.00,VWS V14.01,2013-12-02 00:32:00,
2013-12-01 19:37:00,50.4,35.8,30.01,NNE,25,0.0,0.0,57,0.00,,,0.00,VWS V14.01,2013-12-02 00:37:00,
2013-12-01 19:42:00,50.4,36.2,30.01,NNE,25,0.0,0.0,58,0.00,,,0.00,VWS V14.01,2013-12-02 00:42:00,
2013-12-01 19:47:00,50.4,35.8,30.01,NNE,25,0.0,0.0,57,0.00,,,0.00,VWS V14.01,2013-12-02 00:47:00,
2013-12-01 19:52:00,50.4,36.2,30.01,NNE,25,0.0,0.0,58,0.00,,,0.00,VWS V14.01,2013-12-02 00:52:00,
2013-12-01 19:57:00,50.4,36.2,30.00,NNE,25,0.0,0.0,58,0.00,,,0.00,VWS V14.01,2013-12-02 00:57:00,
2013-12-01 20:00:00,45.1,37.3,29.99,NNE,25,0.0,0.0,74,0.00,,,0.00,VWS V14.01,2013-12-02 01:00:00,
2013-12-01 20:02:00,50.2,36.4,30.00,NNE,25,0.0,0.0,59,0.00,,,0.00,VWS V14.01,2013-12-02 01:02:00,
2013-12-01 20:07:00,50.2,36.0,30.00,NNE,25,0.0,0.0,58,0.00,,,0.00,VWS V14.01,2013-12-02 01:07:00,
2013-12-01 20:12:00,50.1,35.9,30.00,NNE,25,0.0,0.0,58,0.00,,,0.00,VWS V14.01,2013-12-02 01:12:00,
2013-12-01 20:17:00,50.1,36.3,30.00,NNE,25,0.0,0.0,59,0.00,,,0.00,VWS V14.01,2013-12-02 01:17:00,
2013-12-01 20:22:00,49.9,36.2,30.00,NNE,25,0.0,0.0,59,0.00,,,0.00,VWS V14.01,2013-12-02 01:22:00,
2013-12-01 20:27:00,49.8,36.1,29.99,NNE,25,0.0,0.0,59,0.00,,,0.00,VWS V14.01,2013-12-02 01:27:00,
2013-12-01 20:30:00,44.6,37.8,29.98,NNE,25,0.0,0.0,77,0.00,,,0.00,VWS V14.01,2013-12-02 01:30:00,
2013-12-01 20:32:00,49.6,35.9,29.99,NNE,25,0.0,0.0,59,0.00,,,0.00,VWS V14.01,2013-12-02 01:32:00,
2013-12-01 20:37:00,49.4,35.7,29.99,NNE,25,0.0,0.0,59,0.00,,,0.00,VWS V14.01,2013-12-02 01:37:00,
2013-12-01 20:42:00,49.2,36.3,30.00,NNE,25,0.0,0.0,61,0.00,,,0.00,VWS V14.01,2013-12-02 01:42:00,
2013-12-01 20:47:00,48.9,36.5,30.00,NNE,25,0.0,0.0,62,0.00,,,0.00,VWS V14.01,2013-12-02 01:47:00,
2013-12-01 20:52:00,48.8,36.4,30.00,NNE,25,0.0,0.0,62,0.00,,,0.00,VWS V14.01,2013-12-02 01:52:00,
2013-12-01 20:57:00,48.3,36.7,30.00,NNE,25,0.0,0.0,64,0.00,,,0.00,VWS V14.01,2013-12-02 01:57:00,
2013-12-01 21:00:00,44.6,38.2,29.97,NNE,25,0.0,0.0,78,0.00,,,0.00,VWS V14.01,2013-12-02 02:00:00,
2013-12-01 21:02:00,48.0,36.8,30.00,NNE,25,0.0,0.0,65,0.00,,,0.00,VWS V14.01,2013-12-02 02:02:00,
2013-12-01 21:07:00,47.6,36.4,30.00,NNE,25,0.0,0.0,65,0.00,,,0.00,VWS V14.01,2013-12-02 02:07:00,
2013-12-01 21:12:00,47.3,36.5,29.99,NNE,25,0.0,0.0,66,0.00,,,0.00,VWS V14.01,2013-12-02 02:12:00,
2013-12-01 21:17:00,47.0,36.2,29.99,NNE,25,0.0,0.0,66,0.00,,,0.00,VWS V14.01,2013-12-02 02:17:00,
2013-12-01 21:22:00,46.8,36.4,29.99,NNE,25,0.0,0.0,67,0.00,,,0.00,VWS V14.01,2013-12-02 02:22:00,
2013-12-01 21:27:00,46.5,36.5,29.99,NNE,25,0.0,0.0,68,0.00,,,0.00,VWS V14.01,2013-12-02 02:27:00,
2013-12-01 21:30:00,44.8,38.7,29.97,NNE,25,0.0,0.0,79,0.00,,,0.00,VWS V14.01,2013-12-02 02:30:00,
2013-12-01 21:32:00,46.2,36.6,29.99,NNE,25,0.0,0.0,69,0.00,,,0.00,VWS V14.01,2013-12-02 02:32:00,
2013-12-01 21:37:00,46.0,37.1,29.99,NNE,25,0.0,0.0,71,0.00,,,0.00,VWS V14.01,2013-12-02 02:37:00,
2013-12-01 21:41:00,45.7,36.8,29.99,NNE,25,0.0,0.0,71,0.00,,,0.00,VWS V14.01,2013-12-02 02:41:00,
2013-12-01 21:46:00,45.4,36.6,29.99,NNE,25,0.0,0.0,71,0.00,,,0.00,VWS V14.01,2013-12-02 02:46:00,
2013-12-01 21:51:00,45.2,37.1,29.99,NNE,25,0.0,0.0,73,0.00,,,0.00,VWS V14.01,2013-12-02 02:51:00,
2013-12-01 21:56:00,44.9,37.1,29.99,NNE,25,0.0,0.0,74,0.00,,,0.00,VWS V14.01,2013-12-02 02:56:00,
2013-12-01 22:00:00,44.5,38.4,29.96,NNE,25,0.0,0.0,79,0.00,,,0.00,VWS V14.01,2013-12-02 03:00:00,
2013-12-01 22:01:00,44.8,37.0,29.99,NNE,25,0.0,0.0,74,0.00,,,0.00,VWS V14.01,2013-12-02 03:01:00,
2013-12-01 22:06:00,44.8,37.4,29.99,NNE,25,0.0,0.0,75,0.00,,,0.00,VWS V14.01,2013-12-02 03:06:00,
2013-12-01 22:11:00,44.6,37.2,29.98,NNE,25,0.0,0.0,75,0.00,,,0.00,VWS V14.01,2013-12-02 03:11:00,
2013-12-01 22:16:00,44.6,37.5,29.98,NNE,25,0.0,0.0,76,0.00,,,0.00,VWS V14.01,2013-12-02 03:16:00,
2013-12-01 22:21:00,44.6,37.5,29.98,NNE,25,0.0,0.0,76,0.00,,,0.00,VWS V14.01,2013-12-02 03:21:00,
2013-12-01 22:26:00,44.6,37.5,29.98,NNE,25,0.0,0.0,76,0.00,,,0.00,VWS V14.01,2013-12-02 03:26:00,
2013-12-01 22:30:00,42.8,37.7,29.94,NNE,25,0.0,0.0,82,0.00,,,0.00,VWS V14.01,2013-12-02 03:30:00,
2013-12-01 22:31:00,44.6,37.8,29.98,NNE,25,0.0,0.0,77,0.00,,,0.00,VWS V14.01,2013-12-02 03:31:00,
2013-12-01 22:36:00,44.6,38.2,29.98,NNE,25,0.0,0.0,78,0.00,,,0.00,VWS V14.01,2013-12-02 03:36:00,
2013-12-01 22:41:00,44.6,38.2,29.97,NNE,25,0.0,0.0,78,0.00,,,0.00,VWS V14.01,2013-12-02 03:41:00,
2013-12-01 22:46:00,44.6,38.2,29.97,NNE,25,0.0,0.0,78,0.00,,,0.00,VWS V14.01,2013-12-02 03:46:00,
2013-12-01 22:51:00,44.6,38.2,29.97,NNE,25,0.0,0.0,78,0.00,,,0.00,VWS V14.01,2013-12-02 03:51:00,
2013-12-01 22:56:00,44.6,38.2,29.97,NNE,25,0.0,0.0,78,0.00,,,0.00,VWS V14.01,2013-12-02 03:56:00,
2013-12-01 23:00:00,42.2,37.4,29.93,NNE,25,0.0,0.0,83,0.00,,,0.00,VWS V14.01,2013-12-02 04:00:00,
2013-12-01 23:01:00,44.8,38.7,29.97,NNE,25,0.0,0.0,79,0.00,,,0.00,VWS V14.01,2013-12-02 04:01:00,
2013-12-01 23:06:00,44.6,38.5,29.97,NNE,25,0.0,0.0,79,0.00,,,0.00,VWS V14.01,2013-12-02 04:06:00,
2013-12-01 23:07:00,44.2,38.1,29.96,NNE,25,0.0,0.0,79,0.00,,,0.00,VWS V14.01,2013-12-02 04:07:00,
2013-12-01 23:08:00,44.2,38.1,29.96,NNE,25,0.0,0.0,79,0.00,,,0.00,VWS V14.01,2013-12-02 04:08:00,
2013-12-01 23:09:00,44.1,38.0,29.96,NNE,25,0.0,0.0,79,0.00,,,0.00,VWS V14.01,2013-12-02 04:09:00,
2013-12-01 23:10:00,44.1,38.0,29.96,NNE,25,0.0,0.0,79,0.00,,,0.00,VWS V14.01,2013-12-02 04:10:00,
2013-12-01 23:11:00,44.6,38.2,29.97,NNE,25,0.0,0.0,78,0.00,,,0.00,VWS V14.01,2013-12-02 04:11:00,
2013-12-01 23:12:00,43.9,37.8,29.96,NNE,25,0.0,0.0,79,0.00,,,0.00,VWS V14.01,2013-12-02 04:12:00,
2013-12-01 23:16:00,44.6,38.2,29.97,NNE,25,0.0,0.0,78,0.00,,,0.00,VWS V14.01,2013-12-02 04:16:00,
2013-12-01 23:21:00,44.6,38.5,29.97,NNE,25,0.0,0.0,79,0.00,,,0.00,VWS V14.01,2013-12-02 04:21:00,
2013-12-01 23:26:00,44.8,38.7,29.97,NNE,25,0.0,0.0,79,0.00,,,0.00,VWS V14.01,2013-12-02 04:26:00,
2013-12-01 23:30:00,41.6,37.4,29.93,NNE,25,0.0,0.0,85,0.00,,,0.00,VWS V14.01,2013-12-02 04:30:00,
2013-12-01 23:31:00,44.8,38.7,29.97,NNE,25,0.0,0.0,79,0.00,,,0.00,VWS V14.01,2013-12-02 04:31:00,
2013-12-01 23:36:00,44.8,38.7,29.97,NNE,25,0.0,0.0,79,0.00,,,0.00,VWS V14.01,2013-12-02 04:36:00,
2013-12-01 23:41:00,44.8,38.7,29.96,NNE,25,0.0,0.0,79,0.00,,,0.00,VWS V14.01,2013-12-02 04:41:00,
2013-12-01 23:46:00,44.6,38.5,29.96,NNE,25,0.0,0.0,79,0.00,,,0.00,VWS V14.01,2013-12-02 04:46:00,
2013-12-01 23:51:00,44.6,38.5,29.96,NNE,25,0.0,0.0,79,0.00,,,0.00,VWS V14.01,2013-12-02 04:51:00,
2013-12-01 23:56:00,44.3,38.2,29.96,NNE,25,0.0,0.0,79,0.00,,,0.00,VWS V14.01,2013-12-02 04:56:00,